Your Météo : votre météo gratuite
Mes favoris météo

Observations météo à Buechel (Allemagne)




Tableau des observations (temps universel)

HeurePictosTempératureHumiditéVent dir.Vent vit.PressionVisbilité
00:20-3°C93%5km/h1022hpa1.7km
01:20-4°C93%5km/h1021hpa1.4km
02:20-3°C86%11km/h1020hpa1.2km
03:20-3°C86%9km/h1020hpa1.2km
04:20-3°C86%9km/h1020hpa8.0km
05:20-3°C86%4km/h1019hpa8.0km
06:20-3°C86%5km/h1019hpa8.0km
07:20-3°C86%5km/h1019hpa8.0km
07:45-3°C86%8km/h1019hpa7.0km
08:20-3°C86%8km/h1019hpa9.0km
09:20-2°C80%5km/h1018hpa>10km
10:20-2°C86%9km/h1018hpa>10km
11:20-2°C86%11km/h1018hpa>10km
12:10-1°C80%9km/h1017hpa>10km
12:20-1°C80%8km/h1017hpa>10km
17:20-1°C74%5km/h1016hpa>10km
18:20-1°C80%5km/h1015hpa>10km
19:20-1°C80%4km/h1015hpa>10km
20:20-1°C80%4km/h1015hpa>10km
21:10-1°C80%2km/h1015hpa>10km
21:20-1°C80%2km/h1015hpa>10km
22:20-2°C86%4km/h1015hpa>10km
23:20-2°C86%2km/h1015hpa>10km




Nos rubriques phares
La météo sur votre site web
Modélisations numériques
Météo des neiges par ville Les stations à proximité
Hahn ( 28 km )
Mendig (ger-army ( 28 km )
Mendig (ger-arm ( 28 km )
Spangdahlem (usa ( 33 km )
Pferdsfeld (ger- ( 51 km )
Idar-oberstein(m ( 55 km )
Idar/oberstein ( 55 km )
Baumholder (usa ( 61 km )
Bad kreuznach aa ( 67 km )
Elsenborn (mil) ( 72 km )